Year,Month,Day,Hour,Minute,Value (Times are PST for temperature in C)
2019,03,31,00,00,8.00
2019,03,31,00,01,8.00
2019,03,31,00,02,7.90
2019,03,31,00,03,7.90
2019,03,31,00,04,7.90
2019,03,31,00,05,7.90
2019,03,31,00,06,7.90
2019,03,31,00,07,7.90
2019,03,31,00,08,7.90
2019,03,31,00,09,7.90
2019,03,31,00,10,7.90
2019,03,31,00,11,7.90
2019,03,31,00,12,7.90
2019,03,31,00,13,7.90
2019,03,31,00,14,7.80
2019,03,31,00,15,7.80
2019,03,31,00,16,7.80
2019,03,31,00,17,7.80
2019,03,31,00,18,7.80
2019,03,31,00,19,7.80
2019,03,31,00,20,7.70
2019,03,31,00,21,7.70
2019,03,31,00,22,7.70
2019,03,31,00,23,7.70
2019,03,31,00,24,7.70
2019,03,31,00,25,7.70
2019,03,31,00,26,7.60
2019,03,31,00,27,7.60
2019,03,31,00,28,7.60
2019,03,31,00,29,7.60
2019,03,31,00,30,7.50
2019,03,31,00,31,7.50
2019,03,31,00,32,7.40
2019,03,31,00,33,7.40
2019,03,31,00,34,7.40
2019,03,31,00,35,7.40
2019,03,31,00,36,7.40
2019,03,31,00,37,7.40
2019,03,31,00,38,7.40
2019,03,31,00,39,7.40
2019,03,31,00,40,7.30
2019,03,31,00,41,7.30
2019,03,31,00,42,7.40
2019,03,31,00,43,7.40
2019,03,31,00,44,7.40
2019,03,31,00,45,7.40
2019,03,31,00,46,7.30
2019,03,31,00,47,7.30
2019,03,31,00,48,7.30
2019,03,31,00,49,7.30
2019,03,31,00,50,7.30
2019,03,31,00,51,7.30
2019,03,31,00,52,7.30
2019,03,31,00,53,7.30
2019,03,31,00,54,7.20
2019,03,31,00,55,7.20
2019,03,31,00,56,7.20
2019,03,31,00,57,7.20
2019,03,31,00,58,7.20
2019,03,31,00,59,7.20
2019,03,31,01,00,7.20
2019,03,31,01,01,7.20
2019,03,31,01,02,7.10
2019,03,31,01,03,7.10
2019,03,31,01,04,7.10
2019,03,31,01,05,7.00
2019,03,31,01,06,7.00
2019,03,31,01,07,7.00
2019,03,31,01,08,7.00
2019,03,31,01,09,7.00
2019,03,31,01,10,7.00
2019,03,31,01,11,7.00
2019,03,31,01,12,7.00
2019,03,31,01,13,7.00
2019,03,31,01,14,7.00
2019,03,31,01,15,7.00
2019,03,31,01,16,6.90
2019,03,31,01,17,6.90
2019,03,31,01,18,6.90
2019,03,31,01,19,6.90
2019,03,31,01,20,6.90
2019,03,31,01,21,6.90
2019,03,31,01,22,6.90
2019,03,31,01,23,6.90
2019,03,31,01,24,6.90
2019,03,31,01,25,6.90
2019,03,31,01,26,6.90
2019,03,31,01,27,6.90
2019,03,31,01,28,6.90
2019,03,31,01,29,6.90
2019,03,31,01,30,6.80
2019,03,31,01,31,6.80
2019,03,31,01,32,6.80
2019,03,31,01,33,6.80
2019,03,31,01,34,6.80
2019,03,31,01,35,6.80
2019,03,31,01,36,6.80
2019,03,31,01,37,6.80
2019,03,31,01,38,6.80
2019,03,31,01,39,6.80
2019,03,31,01,40,6.80
2019,03,31,01,41,6.80
2019,03,31,01,42,6.80
2019,03,31,01,43,6.80
2019,03,31,01,44,6.80
2019,03,31,01,45,6.80
2019,03,31,01,46,6.80
2019,03,31,01,47,6.80
2019,03,31,01,48,6.80
2019,03,31,01,49,6.80
2019,03,31,01,50,6.80
2019,03,31,01,51,6.80
2019,03,31,01,52,6.80
2019,03,31,01,53,6.80
2019,03,31,01,54,6.80
2019,03,31,01,55,6.80
2019,03,31,01,56,6.80
2019,03,31,01,57,6.80
2019,03,31,01,58,6.80
2019,03,31,01,59,6.80
2019,03,31,02,00,6.80
2019,03,31,02,01,6.80
2019,03,31,02,02,6.80
2019,03,31,02,03,6.80
2019,03,31,02,04,6.80
2019,03,31,02,05,6.80
2019,03,31,02,06,6.70
2019,03,31,02,07,6.70
2019,03,31,02,08,6.70
2019,03,31,02,09,6.70
2019,03,31,02,10,6.70
2019,03,31,02,11,6.70
2019,03,31,02,12,6.70
2019,03,31,02,13,6.70
2019,03,31,02,14,6.70
2019,03,31,02,15,6.60
2019,03,31,02,16,6.60
2019,03,31,02,17,6.60
2019,03,31,02,18,6.60
2019,03,31,02,19,6.60
2019,03,31,02,20,6.60
2019,03,31,02,21,6.60
2019,03,31,02,22,6.60
2019,03,31,02,23,6.60
2019,03,31,02,24,6.60
2019,03,31,02,25,6.60
2019,03,31,02,26,6.60
2019,03,31,02,27,6.60
2019,03,31,02,28,6.60
2019,03,31,02,29,6.50
2019,03,31,02,30,6.50
2019,03,31,02,31,6.50
2019,03,31,02,32,6.50
2019,03,31,02,33,6.40
2019,03,31,02,34,6.40
2019,03,31,02,35,6.40
2019,03,31,02,36,6.40
2019,03,31,02,37,6.30
2019,03,31,02,38,6.30
2019,03,31,02,39,6.30
2019,03,31,02,40,6.30
2019,03,31,02,41,6.30
2019,03,31,02,42,6.30
2019,03,31,02,43,6.30
2019,03,31,02,44,6.30
2019,03,31,02,45,6.30
2019,03,31,02,46,6.30
2019,03,31,02,47,6.30
2019,03,31,02,48,6.40
2019,03,31,02,49,6.40
2019,03,31,02,50,6.40
2019,03,31,02,51,6.40
2019,03,31,02,52,6.40
2019,03,31,02,53,6.40
2019,03,31,02,54,6.40
2019,03,31,02,55,6.40
2019,03,31,02,56,6.40
2019,03,31,02,57,6.30
2019,03,31,02,58,6.30
2019,03,31,02,59,6.30
2019,03,31,03,00,6.30
2019,03,31,03,01,6.30
2019,03,31,03,02,6.30
2019,03,31,03,03,6.30
2019,03,31,03,04,6.30
2019,03,31,03,05,6.30
2019,03,31,03,06,6.30
2019,03,31,03,07,6.30
2019,03,31,03,08,6.30
2019,03,31,03,09,6.30
2019,03,31,03,10,6.20
2019,03,31,03,11,6.20
2019,03,31,03,12,6.20
2019,03,31,03,13,6.10
2019,03,31,03,14,6.10
2019,03,31,03,15,6.10
2019,03,31,03,16,6.10
2019,03,31,03,17,6.10
2019,03,31,03,18,6.00
2019,03,31,03,19,6.00
2019,03,31,03,20,5.90
2019,03,31,03,21,5.90
2019,03,31,03,22,5.90
2019,03,31,03,23,5.90
2019,03,31,03,24,5.90
2019,03,31,03,25,5.90
2019,03,31,03,26,5.80
2019,03,31,03,27,5.80
2019,03,31,03,28,5.80
2019,03,31,03,29,5.80
2019,03,31,03,30,5.80
2019,03,31,03,31,5.80
2019,03,31,03,32,5.80
2019,03,31,03,33,5.80
2019,03,31,03,34,5.80
2019,03,31,03,35,5.80
2019,03,31,03,36,5.80
2019,03,31,03,37,5.80
2019,03,31,03,38,5.80
2019,03,31,03,39,5.80
2019,03,31,03,40,5.80
2019,03,31,03,41,5.80
2019,03,31,03,42,5.80
2019,03,31,03,43,5.80
2019,03,31,03,44,5.70
2019,03,31,03,45,5.70
2019,03,31,03,46,5.70
2019,03,31,03,47,5.70
2019,03,31,03,48,5.70
2019,03,31,03,49,5.70
2019,03,31,03,50,5.70
2019,03,31,03,51,5.70
2019,03,31,03,52,5.60
2019,03,31,03,53,5.60
2019,03,31,03,54,5.60
2019,03,31,03,55,5.60
2019,03,31,03,56,5.60
2019,03,31,03,57,5.60
2019,03,31,03,58,5.60
2019,03,31,03,59,5.60
2019,03,31,04,00,5.60
2019,03,31,04,01,5.60
2019,03,31,04,02,5.60
2019,03,31,04,03,5.60
2019,03,31,04,04,5.60
2019,03,31,04,05,5.60
2019,03,31,04,06,5.60
2019,03,31,04,07,5.60
2019,03,31,04,08,5.60
2019,03,31,04,09,5.60
2019,03,31,04,10,5.60
2019,03,31,04,11,5.60
2019,03,31,04,12,5.60
2019,03,31,04,13,5.60
2019,03,31,04,14,5.60
2019,03,31,04,15,5.60
2019,03,31,04,16,5.50
2019,03,31,04,17,5.50
2019,03,31,04,18,5.50
2019,03,31,04,19,5.50
2019,03,31,04,20,5.50
2019,03,31,04,21,5.40
2019,03,31,04,22,5.40
2019,03,31,04,23,5.40
2019,03,31,04,24,5.40
2019,03,31,04,25,5.40
2019,03,31,04,26,5.50
2019,03,31,04,27,5.50
2019,03,31,04,28,5.60
2019,03,31,04,29,5.60
2019,03,31,04,30,5.60
2019,03,31,04,31,5.60
2019,03,31,04,32,5.60
2019,03,31,04,33,5.50
2019,03,31,04,34,5.50
2019,03,31,04,35,5.40
2019,03,31,04,36,5.40
2019,03,31,04,37,5.30
2019,03,31,04,38,5.30
2019,03,31,04,39,5.30
2019,03,31,04,40,5.30
2019,03,31,04,41,5.20
2019,03,31,04,42,5.20
2019,03,31,04,43,5.20
2019,03,31,04,44,5.20
2019,03,31,04,45,5.10
2019,03,31,04,46,5.10
2019,03,31,04,47,5.10
2019,03,31,04,48,5.10
2019,03,31,04,49,5.10
2019,03,31,04,50,5.10
2019,03,31,04,51,5.10
2019,03,31,04,52,5.10
2019,03,31,04,53,5.10
2019,03,31,04,54,5.10
2019,03,31,04,55,5.10
2019,03,31,04,56,5.10
2019,03,31,04,57,5.10
2019,03,31,04,58,5.10
2019,03,31,04,59,5.10
2019,03,31,05,00,5.10
2019,03,31,05,01,5.10
2019,03,31,05,02,5.10
2019,03,31,05,03,5.10
2019,03,31,05,04,5.00
2019,03,31,05,05,5.00
2019,03,31,05,06,5.00
2019,03,31,05,07,5.00
2019,03,31,05,08,4.90
2019,03,31,05,09,4.90
2019,03,31,05,10,4.90
2019,03,31,05,11,4.90
2019,03,31,05,12,4.90
2019,03,31,05,13,4.90
2019,03,31,05,14,4.90
2019,03,31,05,15,4.80
2019,03,31,05,16,4.90
2019,03,31,05,17,4.90
2019,03,31,05,18,4.90
2019,03,31,05,19,4.90
2019,03,31,05,20,4.90
2019,03,31,05,21,4.90
2019,03,31,05,22,4.90
2019,03,31,05,23,4.90
2019,03,31,05,24,4.90
2019,03,31,05,25,4.90
2019,03,31,05,26,4.90
2019,03,31,05,27,4.90
2019,03,31,05,28,4.90
2019,03,31,05,29,4.90
2019,03,31,05,30,4.90
2019,03,31,05,31,4.80
2019,03,31,05,32,4.80
2019,03,31,05,33,4.80
2019,03,31,05,34,4.80
2019,03,31,05,35,4.70
2019,03,31,05,36,4.70
2019,03,31,05,37,4.70
2019,03,31,05,38,4.70
2019,03,31,05,39,4.60
2019,03,31,05,40,4.60
2019,03,31,05,41,4.60
2019,03,31,05,42,4.60
2019,03,31,05,43,4.60
2019,03,31,05,44,4.60
2019,03,31,05,45,4.60
2019,03,31,05,46,4.60
2019,03,31,05,47,4.60
2019,03,31,05,48,4.60
2019,03,31,05,49,4.60
2019,03,31,05,50,4.60
2019,03,31,05,51,4.60
2019,03,31,05,52,4.60
2019,03,31,05,53,4.70
2019,03,31,05,54,4.70
2019,03,31,05,55,4.70
2019,03,31,05,56,4.70
2019,03,31,05,57,4.70
2019,03,31,05,58,4.70
2019,03,31,05,59,4.70
2019,03,31,06,00,4.70
2019,03,31,06,01,4.60
2019,03,31,06,02,4.60
2019,03,31,06,03,4.60
2019,03,31,06,04,4.60
2019,03,31,06,05,4.60
2019,03,31,06,06,4.60
2019,03,31,06,07,4.60
2019,03,31,06,08,4.60
2019,03,31,06,09,4.60
2019,03,31,06,10,4.50
2019,03,31,06,11,4.50
2019,03,31,06,12,4.50
2019,03,31,06,13,4.60
2019,03,31,06,14,4.60
2019,03,31,06,15,4.60
2019,03,31,06,16,4.60
2019,03,31,06,17,4.60
2019,03,31,06,18,4.60
2019,03,31,06,19,4.60
2019,03,31,06,20,4.60
2019,03,31,06,21,4.60
2019,03,31,06,22,4.70
2019,03,31,06,23,4.70
2019,03,31,06,24,4.70
2019,03,31,06,25,4.70
2019,03,31,06,26,4.70
2019,03,31,06,27,4.70
2019,03,31,06,28,4.70
2019,03,31,06,29,4.70
2019,03,31,06,30,4.60
2019,03,31,06,31,4.60
2019,03,31,06,32,4.60
2019,03,31,06,33,4.60
2019,03,31,06,34,4.50
2019,03,31,06,35,4.50
2019,03,31,06,36,4.50
2019,03,31,06,37,4.50
2019,03,31,06,38,4.50
2019,03,31,06,39,4.50
2019,03,31,06,40,4.50
2019,03,31,06,41,4.60
2019,03,31,06,42,4.60
2019,03,31,06,43,4.60
2019,03,31,06,44,4.60
2019,03,31,06,45,4.50
2019,03,31,06,46,4.50
2019,03,31,06,47,4.40
2019,03,31,06,48,4.40
2019,03,31,06,49,4.40
2019,03,31,06,50,4.30
2019,03,31,06,51,4.30
2019,03,31,06,52,4.30
2019,03,31,06,53,4.30
2019,03,31,06,54,4.20
2019,03,31,06,55,4.20
2019,03,31,06,56,4.20
2019,03,31,06,57,4.20
2019,03,31,06,58,4.10
2019,03,31,06,59,4.10
2019,03,31,07,00,4.10
2019,03,31,07,01,4.10
2019,03,31,07,02,4.10
2019,03,31,07,03,4.10
2019,03,31,07,04,4.00
2019,03,31,07,05,4.00
2019,03,31,07,06,4.00
2019,03,31,07,07,3.90
2019,03,31,07,08,3.90
2019,03,31,07,09,3.90
2019,03,31,07,10,3.90
2019,03,31,07,11,3.90
2019,03,31,07,12,3.80
2019,03,31,07,13,3.80
2019,03,31,07,14,3.80
2019,03,31,07,15,3.80
2019,03,31,07,16,3.80
2019,03,31,07,17,3.90
2019,03,31,07,18,3.90
2019,03,31,07,19,3.90
2019,03,31,07,20,4.00
2019,03,31,07,21,4.00
2019,03,31,07,22,4.10
2019,03,31,07,23,4.10
2019,03,31,07,24,4.20
2019,03,31,07,25,4.20
2019,03,31,07,26,4.20
2019,03,31,07,27,4.30
2019,03,31,07,28,4.30
2019,03,31,07,29,4.40
2019,03,31,07,30,4.40
2019,03,31,07,31,4.40
2019,03,31,07,32,4.40
2019,03,31,07,33,4.40
2019,03,31,07,34,4.50
2019,03,31,07,35,4.60
2019,03,31,07,36,4.60
2019,03,31,07,37,4.60
2019,03,31,07,38,4.70
2019,03,31,07,39,4.70
2019,03,31,07,40,4.60
2019,03,31,07,41,4.60
2019,03,31,07,42,4.60
2019,03,31,07,43,4.60
2019,03,31,07,44,4.60
2019,03,31,07,45,4.60
2019,03,31,07,46,4.60
2019,03,31,07,47,4.60
2019,03,31,07,48,4.60
2019,03,31,07,49,4.60
2019,03,31,07,50,4.70
2019,03,31,07,51,4.70
2019,03,31,07,52,4.70
2019,03,31,07,53,4.80
2019,03,31,07,54,4.80
2019,03,31,07,55,4.80
2019,03,31,07,56,4.90
2019,03,31,07,57,4.90
2019,03,31,07,58,5.00
2019,03,31,07,59,5.00
2019,03,31,08,00,5.10
2019,03,31,08,01,5.10
2019,03,31,08,02,5.10
2019,03,31,08,03,5.20
2019,03,31,08,04,5.30
2019,03,31,08,05,5.30
2019,03,31,08,06,5.40
2019,03,31,08,07,5.50
2019,03,31,08,08,5.60
2019,03,31,08,09,5.70
2019,03,31,08,10,5.70
2019,03,31,08,11,5.70
2019,03,31,08,12,5.80
2019,03,31,08,13,5.80
2019,03,31,08,14,5.90
2019,03,31,08,15,5.90
2019,03,31,08,16,5.90
2019,03,31,08,17,5.90
2019,03,31,08,18,5.90
2019,03,31,08,19,6.00
2019,03,31,08,20,6.00
2019,03,31,08,21,6.10
2019,03,31,08,22,6.20
2019,03,31,08,23,6.20
2019,03,31,08,24,6.30
2019,03,31,08,25,6.40
2019,03,31,08,26,6.50
2019,03,31,08,27,6.60
2019,03,31,08,28,6.70
2019,03,31,08,29,6.80
2019,03,31,08,30,6.90
2019,03,31,08,31,7.00
2019,03,31,08,32,7.10
2019,03,31,08,33,7.10
2019,03,31,08,34,7.20
2019,03,31,08,35,7.30
2019,03,31,08,36,7.40
2019,03,31,08,37,7.50
2019,03,31,08,38,7.50
2019,03,31,08,39,7.60
2019,03,31,08,40,7.70
2019,03,31,08,41,7.80
2019,03,31,08,42,7.90
2019,03,31,08,43,8.00
2019,03,31,08,44,8.10
2019,03,31,08,45,8.20
2019,03,31,08,46,8.30
2019,03,31,08,47,8.40
2019,03,31,08,48,8.60
2019,03,31,08,49,8.70
2019,03,31,08,50,8.90
2019,03,31,08,51,9.00
2019,03,31,08,52,9.10
2019,03,31,08,53,9.20
2019,03,31,08,54,9.30
2019,03,31,08,55,9.40
2019,03,31,08,56,9.50
2019,03,31,08,57,9.60
2019,03,31,08,58,9.70
2019,03,31,08,59,9.80
2019,03,31,09,00,9.80
2019,03,31,09,01,9.90
2019,03,31,09,02,10.00
2019,03,31,09,03,10.00
2019,03,31,09,04,10.10
2019,03,31,09,05,10.20
2019,03,31,09,06,10.20
2019,03,31,09,07,10.30
2019,03,31,09,08,10.40
2019,03,31,09,09,10.50
2019,03,31,09,10,10.60
2019,03,31,09,11,10.60
2019,03,31,09,12,10.60
2019,03,31,09,13,10.70
2019,03,31,09,14,10.70
2019,03,31,09,15,10.80
2019,03,31,09,16,10.80
2019,03,31,09,17,10.80
2019,03,31,09,18,10.80
2019,03,31,09,19,10.80
2019,03,31,09,20,10.80
2019,03,31,09,21,10.80
2019,03,31,09,22,10.80
2019,03,31,09,23,10.90
2019,03,31,09,24,10.90
2019,03,31,09,25,11.00
2019,03,31,09,26,11.00
2019,03,31,09,27,11.00
2019,03,31,09,28,11.00
2019,03,31,09,29,11.00
2019,03,31,09,30,11.00
2019,03,31,09,31,11.00
2019,03,31,09,32,11.00
2019,03,31,09,33,11.00
2019,03,31,09,34,11.00
2019,03,31,09,35,11.10
2019,03,31,09,36,11.10
2019,03,31,09,37,11.20
2019,03,31,09,38,11.30
2019,03,31,09,39,11.40
2019,03,31,09,40,11.40
2019,03,31,09,41,11.50
2019,03,31,09,42,11.60
2019,03,31,09,43,11.70
2019,03,31,09,44,11.70
2019,03,31,09,45,11.80
2019,03,31,09,46,11.80
2019,03,31,09,47,11.90
2019,03,31,09,48,11.90
2019,03,31,09,49,12.00
2019,03,31,09,50,12.10
2019,03,31,09,51,12.20
2019,03,31,09,52,12.20
2019,03,31,09,53,12.40
2019,03,31,09,54,12.50
2019,03,31,09,55,12.60
2019,03,31,09,56,12.70
2019,03,31,09,57,12.80
2019,03,31,09,58,12.80
2019,03,31,09,59,12.90
2019,03,31,10,00,12.90
2019,03,31,10,01,13.00
2019,03,31,10,02,13.00
2019,03,31,10,03,13.10
2019,03,31,10,04,13.20
2019,03,31,10,05,13.20
2019,03,31,10,06,13.30
2019,03,31,10,07,13.30
2019,03,31,10,08,13.40
2019,03,31,10,09,13.40
2019,03,31,10,10,13.50
2019,03,31,10,11,13.50
2019,03,31,10,12,13.60
2019,03,31,10,13,13.60
2019,03,31,10,14,13.70
2019,03,31,10,15,13.70
2019,03,31,10,16,13.60
2019,03,31,10,17,13.50
2019,03,31,10,18,13.40
2019,03,31,10,19,13.30
2019,03,31,10,20,13.30
2019,03,31,10,21,13.30
2019,03,31,10,22,13.30
2019,03,31,10,23,13.30
2019,03,31,10,24,13.30
2019,03,31,10,25,13.40
2019,03,31,10,26,13.40
2019,03,31,10,27,13.50
2019,03,31,10,28,13.60
2019,03,31,10,29,13.60
2019,03,31,10,30,13.70
2019,03,31,10,31,13.70
2019,03,31,10,32,13.80
2019,03,31,10,33,13.80
2019,03,31,10,34,13.80
2019,03,31,10,35,13.80
2019,03,31,10,36,13.80
2019,03,31,10,37,13.80
2019,03,31,10,38,13.90
2019,03,31,10,39,13.90
2019,03,31,10,40,14.00
2019,03,31,10,41,14.10
2019,03,31,10,42,14.10
2019,03,31,10,43,14.20
2019,03,31,10,44,14.20
2019,03,31,10,45,14.20
2019,03,31,10,46,14.20
2019,03,31,10,47,14.20
2019,03,31,10,48,14.20
2019,03,31,10,49,14.20
2019,03,31,10,50,14.20
2019,03,31,10,51,14.20
2019,03,31,10,52,14.20
2019,03,31,10,53,14.00
2019,03,31,10,54,13.70
2019,03,31,10,55,13.40
2019,03,31,10,56,13.00
2019,03,31,10,57,12.80
2019,03,31,10,58,12.60
2019,03,31,10,59,12.50
2019,03,31,11,00,12.40
2019,03,31,11,01,12.40
2019,03,31,11,02,12.30
2019,03,31,11,03,12.20
2019,03,31,11,04,12.20
2019,03,31,11,05,12.20
2019,03,31,11,06,12.20
2019,03,31,11,07,12.20
2019,03,31,11,08,12.10
2019,03,31,11,09,12.10
2019,03,31,11,10,12.10
2019,03,31,11,11,12.10
2019,03,31,11,12,12.10
2019,03,31,11,13,12.10
2019,03,31,11,14,12.20
2019,03,31,11,15,12.10
2019,03,31,11,16,12.10
2019,03,31,11,17,12.10
2019,03,31,11,18,12.10
2019,03,31,11,19,12.10
2019,03,31,11,20,12.10
2019,03,31,11,21,12.10
2019,03,31,11,22,12.10
2019,03,31,11,23,12.10
2019,03,31,11,24,12.10
2019,03,31,11,25,12.20
2019,03,31,11,26,12.30
2019,03,31,11,27,12.30
2019,03,31,11,28,12.40
2019,03,31,11,29,12.50
2019,03,31,11,30,12.60
2019,03,31,11,31,12.70
2019,03,31,11,32,12.70
2019,03,31,11,33,12.80
2019,03,31,11,34,12.90
2019,03,31,11,35,13.00
2019,03,31,11,36,13.10
2019,03,31,11,37,13.20
2019,03,31,11,38,13.30
2019,03,31,11,39,13.30
2019,03,31,11,40,13.40
2019,03,31,11,41,13.40
2019,03,31,11,42,13.40
2019,03,31,11,43,13.50
2019,03,31,11,44,13.50
2019,03,31,11,45,13.60
2019,03,31,11,46,13.60
2019,03,31,11,47,13.60
2019,03,31,11,48,13.60
2019,03,31,11,49,13.70
2019,03,31,11,50,13.70
2019,03,31,11,51,13.80
2019,03,31,11,52,14.00
2019,03,31,11,53,14.20
2019,03,31,11,54,14.30
2019,03,31,11,55,14.50
2019,03,31,11,56,14.60
2019,03,31,11,57,14.70
2019,03,31,11,58,14.80
2019,03,31,11,59,14.80
2019,03,31,12,00,14.80
2019,03,31,12,01,14.90
2019,03,31,12,02,14.90
2019,03,31,12,03,14.90
2019,03,31,12,04,14.90
2019,03,31,12,05,15.00
2019,03,31,12,06,15.00
2019,03,31,12,07,15.10
2019,03,31,12,08,15.10
2019,03,31,12,09,15.10
2019,03,31,12,10,15.00
2019,03,31,12,11,15.00
2019,03,31,12,12,14.90
2019,03,31,12,13,14.90
2019,03,31,12,14,14.80
2019,03,31,12,15,14.80
2019,03,31,12,16,14.90
2019,03,31,12,17,14.90
2019,03,31,12,18,14.90
2019,03,31,12,19,15.00
2019,03,31,12,20,15.10
2019,03,31,12,21,15.20
2019,03,31,12,22,15.20
2019,03,31,12,23,15.20
2019,03,31,12,24,15.10
2019,03,31,12,25,15.00
2019,03,31,12,26,14.80
2019,03,31,12,27,14.50
2019,03,31,12,28,14.40
2019,03,31,12,29,14.40
2019,03,31,12,30,14.40
2019,03,31,12,31,14.40
2019,03,31,12,32,14.60
2019,03,31,12,33,14.70
2019,03,31,12,34,14.70
2019,03,31,12,35,14.80
2019,03,31,12,36,14.80
2019,03,31,12,37,14.80
2019,03,31,12,38,14.80
2019,03,31,12,39,14.80
2019,03,31,12,40,14.90
2019,03,31,12,41,14.90
2019,03,31,12,42,15.00
2019,03,31,12,43,15.10
2019,03,31,12,44,15.20
2019,03,31,12,45,15.10
2019,03,31,12,46,15.10
2019,03,31,12,47,15.10
2019,03,31,12,48,15.20
2019,03,31,12,49,15.20
2019,03,31,12,50,15.30
2019,03,31,12,51,15.30
2019,03,31,12,52,15.30
2019,03,31,12,53,15.30
2019,03,31,12,54,15.40
2019,03,31,12,55,15.40
2019,03,31,12,56,15.50
2019,03,31,12,57,15.50
2019,03,31,12,58,15.60
2019,03,31,12,59,15.50
2019,03,31,13,00,15.50
2019,03,31,13,01,15.40
2019,03,31,13,02,15.40
2019,03,31,13,03,15.40
2019,03,31,13,04,15.40
2019,03,31,13,05,15.40
2019,03,31,13,06,15.40
2019,03,31,13,07,15.40
2019,03,31,13,08,15.50
2019,03,31,13,09,15.60
2019,03,31,13,10,15.60
2019,03,31,13,11,15.60
2019,03,31,13,12,15.60
2019,03,31,13,13,15.60
2019,03,31,13,14,15.50
2019,03,31,13,15,15.50
2019,03,31,13,16,15.60
2019,03,31,13,17,15.60
2019,03,31,13,18,15.60
2019,03,31,13,19,15.60
2019,03,31,13,20,15.50
2019,03,31,13,21,15.50
2019,03,31,13,22,15.60
2019,03,31,13,23,15.60
2019,03,31,13,24,15.70
2019,03,31,13,25,15.80
2019,03,31,13,26,15.80
2019,03,31,13,27,15.90
2019,03,31,13,28,16.00
2019,03,31,13,29,16.10
2019,03,31,13,30,16.00
2019,03,31,13,31,16.00
2019,03,31,13,32,15.90
2019,03,31,13,33,16.00
2019,03,31,13,34,16.00
2019,03,31,13,35,16.10
2019,03,31,13,36,16.20
2019,03,31,13,37,16.20
2019,03,31,13,38,16.20
2019,03,31,13,39,16.20
2019,03,31,13,40,16.20
2019,03,31,13,41,16.20
2019,03,31,13,42,16.30
2019,03,31,13,43,16.30
2019,03,31,13,44,16.20
2019,03,31,13,45,16.20
2019,03,31,13,46,16.20
2019,03,31,13,47,16.20
2019,03,31,13,48,16.20
2019,03,31,13,49,16.20
2019,03,31,13,50,16.20
2019,03,31,13,51,16.20
2019,03,31,13,52,16.20
2019,03,31,13,53,16.30
2019,03,31,13,54,16.30
2019,03,31,13,55,16.40
2019,03,31,13,56,16.40
2019,03,31,13,57,16.50
2019,03,31,13,58,16.40
2019,03,31,13,59,16.40
2019,03,31,14,00,16.30
2019,03,31,14,01,16.40
2019,03,31,14,02,16.40
2019,03,31,14,03,16.40
2019,03,31,14,04,16.40
2019,03,31,14,05,16.40
2019,03,31,14,06,16.50
2019,03,31,14,07,16.60
2019,03,31,14,08,16.60
2019,03,31,14,09,16.60
2019,03,31,14,10,16.70
2019,03,31,14,11,16.70
2019,03,31,14,12,16.60
2019,03,31,14,13,16.60
2019,03,31,14,14,16.70
2019,03,31,14,15,16.70
2019,03,31,14,16,16.70
2019,03,31,14,17,16.70
2019,03,31,14,18,16.60
2019,03,31,14,19,16.60
2019,03,31,14,20,16.60
2019,03,31,14,21,16.70
2019,03,31,14,22,16.70
2019,03,31,14,23,16.80
2019,03,31,14,24,16.90
2019,03,31,14,25,16.90
2019,03,31,14,26,16.90
2019,03,31,14,27,16.90
2019,03,31,14,28,16.80
2019,03,31,14,29,16.80
2019,03,31,14,30,16.80
2019,03,31,14,31,16.70
2019,03,31,14,32,16.70
2019,03,31,14,33,16.80
2019,03,31,14,34,16.80
2019,03,31,14,35,16.80
2019,03,31,14,36,16.80
2019,03,31,14,37,16.80
2019,03,31,14,38,16.70
2019,03,31,14,39,16.80
2019,03,31,14,40,16.80
2019,03,31,14,41,16.80
2019,03,31,14,42,16.90
2019,03,31,14,43,16.90
2019,03,31,14,44,16.90
2019,03,31,14,45,16.90
2019,03,31,14,46,17.00
2019,03,31,14,47,17.00
2019,03,31,14,48,16.90
2019,03,31,14,49,16.90
2019,03,31,14,50,16.90
2019,03,31,14,51,16.90
2019,03,31,14,52,16.90
2019,03,31,14,53,16.90
2019,03,31,14,54,16.90
2019,03,31,14,55,16.80
2019,03,31,14,56,16.70
2019,03,31,14,57,16.60
2019,03,31,14,58,16.50
2019,03,31,14,59,16.50
2019,03,31,15,00,16.50
2019,03,31,15,01,16.40
2019,03,31,15,02,16.40
2019,03,31,15,03,16.40
2019,03,31,15,04,16.40
2019,03,31,15,05,16.40
2019,03,31,15,06,16.50
2019,03,31,15,07,16.50
2019,03,31,15,08,16.40
2019,03,31,15,09,16.10
2019,03,31,15,10,15.90
2019,03,31,15,11,15.70
2019,03,31,15,12,15.50
2019,03,31,15,13,15.30
2019,03,31,15,14,15.10
2019,03,31,15,15,15.00
2019,03,31,15,16,14.90
2019,03,31,15,17,14.80
2019,03,31,15,18,14.70
2019,03,31,15,19,14.70
2019,03,31,15,20,14.80
2019,03,31,15,21,14.80
2019,03,31,15,22,14.70
2019,03,31,15,23,14.70
2019,03,31,15,24,14.70
2019,03,31,15,25,14.70
2019,03,31,15,26,14.70
2019,03,31,15,27,14.70
2019,03,31,15,28,14.70
2019,03,31,15,29,14.60
2019,03,31,15,30,14.60
2019,03,31,15,31,14.50
2019,03,31,15,32,14.40
2019,03,31,15,33,14.30
2019,03,31,15,34,14.20
2019,03,31,15,35,14.10
2019,03,31,15,36,14.10
2019,03,31,15,37,14.10
2019,03,31,15,38,14.00
2019,03,31,15,39,14.10
2019,03,31,15,40,14.10
2019,03,31,15,41,14.10
2019,03,31,15,42,14.20
2019,03,31,15,43,14.30
2019,03,31,15,44,14.30
2019,03,31,15,45,14.20
2019,03,31,15,46,14.10
2019,03,31,15,47,14.10
2019,03,31,15,48,14.20
2019,03,31,15,49,14.20
2019,03,31,15,50,14.10
2019,03,31,15,51,14.10
2019,03,31,15,52,14.10
2019,03,31,15,53,14.10
2019,03,31,15,54,14.10
2019,03,31,15,55,14.10
2019,03,31,15,56,14.00
2019,03,31,15,57,13.90
2019,03,31,15,58,13.90
2019,03,31,15,59,13.80
2019,03,31,16,00,13.80
2019,03,31,16,01,13.90
2019,03,31,16,02,13.90
2019,03,31,16,03,14.00
2019,03,31,16,04,14.00
2019,03,31,16,05,14.10
2019,03,31,16,06,14.10
2019,03,31,16,07,14.10
2019,03,31,16,08,14.10
2019,03,31,16,09,14.10
2019,03,31,16,10,14.00
2019,03,31,16,11,14.00
2019,03,31,16,12,14.00
2019,03,31,16,13,14.00
2019,03,31,16,14,14.00
2019,03,31,16,15,14.00
2019,03,31,16,16,14.00
2019,03,31,16,17,13.90
2019,03,31,16,18,13.80
2019,03,31,16,19,13.80
2019,03,31,16,20,13.70
2019,03,31,16,21,13.70
2019,03,31,16,22,13.70
2019,03,31,16,23,13.80
2019,03,31,16,24,13.90
2019,03,31,16,25,13.90
2019,03,31,16,26,14.00
2019,03,31,16,27,14.10
2019,03,31,16,28,14.20
2019,03,31,16,29,14.30
2019,03,31,16,30,14.30
2019,03,31,16,31,14.40
2019,03,31,16,32,14.40
2019,03,31,16,33,14.40
2019,03,31,16,34,14.40
2019,03,31,16,35,14.40
2019,03,31,16,36,14.50
2019,03,31,16,37,14.60
2019,03,31,16,38,14.70
2019,03,31,16,39,14.80
2019,03,31,16,40,14.80
2019,03,31,16,41,14.90
2019,03,31,16,42,14.90
2019,03,31,16,43,14.90
2019,03,31,16,44,14.90
2019,03,31,16,45,14.80
2019,03,31,16,46,14.70
2019,03,31,16,47,14.60
2019,03,31,16,48,14.60
2019,03,31,16,49,14.60
2019,03,31,16,50,14.60
2019,03,31,16,51,14.50
2019,03,31,16,52,14.50
2019,03,31,16,53,14.50
2019,03,31,16,54,14.60
2019,03,31,16,55,14.60
2019,03,31,16,56,14.70
2019,03,31,16,57,14.70
2019,03,31,16,58,14.70
2019,03,31,16,59,14.70
2019,03,31,17,00,14.70
2019,03,31,17,01,14.70
2019,03,31,17,02,14.70
2019,03,31,17,03,14.70
2019,03,31,17,04,14.70
2019,03,31,17,05,14.60
2019,03,31,17,06,14.60
2019,03,31,17,07,14.60
2019,03,31,17,08,14.50
2019,03,31,17,09,14.40
2019,03,31,17,10,14.30
2019,03,31,17,11,14.30
2019,03,31,17,12,14.30
2019,03,31,17,13,14.30
2019,03,31,17,14,14.30
2019,03,31,17,15,14.30
2019,03,31,17,16,14.40
2019,03,31,17,17,14.40
2019,03,31,17,18,14.40
2019,03,31,17,19,14.40
2019,03,31,17,20,14.40
2019,03,31,17,21,14.40
2019,03,31,17,22,14.40
2019,03,31,17,23,14.40
2019,03,31,17,24,14.40
2019,03,31,17,25,14.40
2019,03,31,17,26,14.40
2019,03,31,17,27,14.40
2019,03,31,17,28,14.40
2019,03,31,17,29,14.40
2019,03,31,17,30,14.40
2019,03,31,17,31,14.40
2019,03,31,17,32,14.40
2019,03,31,17,33,14.40
2019,03,31,17,34,14.50
2019,03,31,17,35,14.50
2019,03,31,17,36,14.50
2019,03,31,17,37,14.60
2019,03,31,17,38,14.60
2019,03,31,17,39,14.50
2019,03,31,17,40,14.50
2019,03,31,17,41,14.40
2019,03,31,17,42,14.30
2019,03,31,17,43,14.30